 ,�O�C���x[��],����1,�O�C���x[��],����2,���ԉ��x[��],����3,���Ԏ��x[��],����4,�m��2(��󒲎�)���x[��],����5,����[��],����6
2002/12/1 0:00,7.0 ,0,69,0,20.1 ,0,52.0 ,0,17.6 ,0,,1
2002/12/1 0:15,6.9 ,2,70,2,19.9 ,2,52.0 ,2,17.6 ,2,,1
2002/12/1 0:30,6.7 ,0,71,0,19.7 ,0,52.0 ,0,17.6 ,0,,1
2002/12/1 0:45,6.6 ,2,72,2,19.5 ,2,52.0 ,2,17.6 ,2,,1
2002/12/1 1:00,6.5 ,0,73,0,19.3 ,0,52.0 ,0,17.5 ,0,,1
2002/12/1 1:15,6.2 ,2,75,2,19.2 ,2,52.0 ,2,17.5 ,2,,1
2002/12/1 1:30,5.8 ,0,76,0,19.0 ,0,52.0 ,0,17.5 ,0,,1
2002/12/1 1:45,5.9 ,2,76,2,18.9 ,2,51.5 ,2,17.5 ,2,,1
2002/12/1 2:00,5.9 ,0,75,0,18.8 ,0,51.0 ,0,17.4 ,0,,1
2002/12/1 2:15,5.8 ,2,76,2,18.8 ,2,51.0 ,2,17.4 ,2,,1
2002/12/1 2:30,5.7 ,0,77,0,18.7 ,0,51.0 ,0,17.4 ,0,,1
2002/12/1 2:45,5.5 ,2,77,2,18.6 ,2,50.5 ,2,17.4 ,2,,1
2002/12/1 3:00,5.3 ,0,77,0,18.5 ,0,50.0 ,0,17.4 ,0,,1
2002/12/1 3:15,5.1 ,2,78,2,18.4 ,2,50.0 ,2,17.4 ,2,,1
2002/12/1 3:30,4.8 ,0,79,0,18.3 ,0,50.0 ,0,17.4 ,0,,1
2002/12/1 3:45,4.8 ,2,79,2,18.3 ,2,50.0 ,2,17.4 ,2,,1
2002/12/1 4:00,4.7 ,0,78,0,18.2 ,0,50.0 ,0,17.4 ,0,,1
2002/12/1 4:15,4.6 ,2,78,2,18.2 ,2,49.5 ,2,17.4 ,2,,1
2002/12/1 4:30,4.5 ,0,78,0,18.1 ,0,49.0 ,0,17.3 ,0,,1
2002/12/1 4:45,4.4 ,2,80,2,18.1 ,2,49.0 ,2,17.3 ,2,,1
2002/12/1 5:00,4.3 ,0,81,0,18.0 ,0,49.0 ,0,17.3 ,0,,1
2002/12/1 5:15,4.3 ,2,81,2,18.0 ,2,49.0 ,2,17.3 ,2,,1
2002/12/1 5:30,4.3 ,0,80,0,17.9 ,0,49.0 ,0,17.2 ,0,,1
2002/12/1 5:45,4.1 ,2,80,2,18.1 ,2,49.5 ,2,17.3 ,2,,1
2002/12/1 6:00,3.8 ,0,80,0,18.2 ,0,50.0 ,0,17.4 ,0,,1
2002/12/1 6:15,3.8 ,2,82,2,18.2 ,2,50.0 ,2,17.5 ,2,,1
2002/12/1 6:30,3.7 ,0,83,0,18.2 ,0,50.0 ,0,17.5 ,0,,1
2002/12/1 6:45,3.8 ,2,83,2,18.3 ,2,50.0 ,2,17.5 ,2,,1
2002/12/1 7:00,3.8 ,0,82,0,18.3 ,0,50.0 ,0,17.5 ,0,,1
2002/12/1 7:15,4.3 ,2,80,2,18.4 ,2,50.0 ,2,17.6 ,2,,1
2002/12/1 7:30,4.7 ,0,77,0,18.5 ,0,50.0 ,0,17.7 ,0,,1
2002/12/1 7:45,3.5 ,2,81,2,20.2 ,2,47.5 ,2,17.7 ,2,,1
2002/12/1 8:00,2.3 ,0,85,0,21.8 ,0,45.0 ,0,17.7 ,0,,1
2002/12/1 8:15,3.5 ,2,82,2,22.5 ,2,50.0 ,2,17.6 ,2,,1
2002/12/1 8:30,4.6 ,0,78,0,23.2 ,0,55.0 ,0,17.5 ,0,,1
2002/12/1 8:45,4.7 ,2,77,2,23.1 ,2,54.5 ,2,17.5 ,2,,1
2002/12/1 9:00,4.8 ,0,76,0,22.9 ,0,54.0 ,0,17.5 ,0,,1
2002/12/1 9:15,5.8 ,2,73,2,21.5 ,2,56.5 ,2,17.9 ,2,,1
2002/12/1 9:30,6.7 ,0,69,0,20.0 ,0,59.0 ,0,18.2 ,0,,1
2002/12/1 9:45,7.5 ,2,63,2,19.7 ,2,60.5 ,2,18.1 ,2,,1
2002/12/1 10:00,8.3 ,0,56,0,19.4 ,0,62.0 ,0,17.9 ,0,,1
2002/12/1 10:15,8.9 ,2,53,2,19.2 ,2,62.5 ,2,17.8 ,2,,1
2002/12/1 10:30,9.4 ,0,49,0,18.9 ,0,63.0 ,0,17.7 ,0,,1
2002/12/1 10:45,10.4 ,2,46,2,18.8 ,2,63.0 ,2,17.6 ,2,,1
2002/12/1 11:00,11.3 ,0,43,0,18.6 ,0,63.0 ,0,17.4 ,0,,1
2002/12/1 11:15,10.3 ,2,48,2,18.5 ,2,62.5 ,2,17.4 ,2,,1
2002/12/1 11:30,9.3 ,0,53,0,18.3 ,0,62.0 ,0,17.3 ,0,,1
2002/12/1 11:45,9.4 ,2,54,2,18.2 ,2,62.0 ,2,17.2 ,2,,1
2002/12/1 12:00,9.4 ,0,54,0,18.1 ,0,62.0 ,0,17.1 ,0,,1
2002/12/1 12:15,9.5 ,2,54,2,18.1 ,2,62.0 ,2,17.0 ,2,,1
2002/12/1 12:30,9.6 ,0,53,0,18.0 ,0,62.0 ,0,16.9 ,0,,1
2002/12/1 12:45,9.9 ,2,53,2,18.0 ,2,62.0 ,2,16.9 ,2,,1
2002/12/1 13:00,10.1 ,0,52,0,17.9 ,0,62.0 ,0,16.8 ,0,,1
2002/12/1 13:15,10.2 ,2,53,2,17.9 ,2,61.5 ,2,16.7 ,2,,1
2002/12/1 13:30,10.2 ,0,53,0,17.8 ,0,61.0 ,0,16.6 ,0,,1
2002/12/1 13:45,10.2 ,2,53,2,17.8 ,2,61.0 ,2,16.6 ,2,,1
2002/12/1 14:00,10.1 ,0,53,0,17.7 ,0,61.0 ,0,16.5 ,0,,1
2002/12/1 14:15,10.2 ,2,53,2,17.7 ,2,61.0 ,2,16.5 ,2,,1
2002/12/1 14:30,10.2 ,0,53,0,17.6 ,0,61.0 ,0,16.4 ,0,,1
2002/12/1 14:45,10.2 ,2,54,2,17.6 ,2,61.0 ,2,16.4 ,2,,1
2002/12/1 15:00,10.1 ,0,54,0,17.5 ,0,61.0 ,0,16.3 ,0,,1
2002/12/1 15:15,10.0 ,2,54,2,17.5 ,2,60.5 ,2,16.3 ,2,,1
2002/12/1 15:30,9.8 ,0,54,0,17.5 ,0,60.0 ,0,16.2 ,0,,1
2002/12/1 15:45,9.6 ,2,55,2,17.4 ,2,60.0 ,2,16.2 ,2,,1
2002/12/1 16:00,9.3 ,0,56,0,17.3 ,0,60.0 ,0,16.1 ,0,,1
2002/12/1 16:15,9.1 ,2,57,2,17.3 ,2,60.0 ,2,16.1 ,2,,1
2002/12/1 16:30,8.9 ,0,58,0,17.3 ,0,60.0 ,0,16.0 ,0,,1
2002/12/1 16:45,8.8 ,2,59,2,17.3 ,2,60.0 ,2,16.0 ,2,,1
2002/12/1 17:00,8.6 ,0,60,0,17.2 ,0,60.0 ,0,15.9 ,0,,1
2002/12/1 17:15,7.8 ,2,65,2,18.0 ,2,58.5 ,2,15.9 ,2,,1
2002/12/1 17:30,7.0 ,0,69,0,18.7 ,0,57.0 ,0,15.9 ,0,,1
2002/12/1 17:45,6.9 ,2,70,2,19.4 ,2,54.5 ,2,16.2 ,2,,1
2002/12/1 18:00,6.7 ,0,70,0,20.1 ,0,52.0 ,0,16.4 ,0,,1
2002/12/1 18:15,6.7 ,2,71,2,21.1 ,2,52.0 ,2,16.6 ,2,,1
2002/12/1 18:30,6.7 ,0,72,0,22.0 ,0,52.0 ,0,16.7 ,0,,1
2002/12/1 18:45,6.5 ,2,73,2,22.4 ,2,53.0 ,2,16.6 ,2,,1
2002/12/1 19:00,6.2 ,0,73,0,22.8 ,0,54.0 ,0,16.4 ,0,,1
2002/12/1 19:15,6.2 ,2,74,2,23.1 ,2,53.0 ,2,16.4 ,2,,1
2002/12/1 19:30,6.2 ,0,75,0,23.3 ,0,52.0 ,0,16.4 ,0,,1
2002/12/1 19:45,6.1 ,2,76,2,23.2 ,2,51.5 ,2,16.4 ,2,,1
2002/12/1 20:00,6.0 ,0,76,0,23.1 ,0,51.0 ,0,16.4 ,0,,1
2002/12/1 20:15,6.0 ,2,76,2,23.3 ,2,53.5 ,2,16.6 ,2,,1
2002/12/1 20:30,5.9 ,0,76,0,23.5 ,0,56.0 ,0,16.8 ,0,,1
2002/12/1 20:45,6.6 ,2,73,2,22.2 ,2,56.0 ,2,17.3 ,2,,1
2002/12/1 21:00,7.2 ,0,70,0,20.9 ,0,56.0 ,0,17.7 ,0,,1
2002/12/1 21:15,7.4 ,2,68,2,20.3 ,2,56.5 ,2,17.8 ,2,,1
2002/12/1 21:30,7.6 ,0,66,0,19.6 ,0,57.0 ,0,17.8 ,0,,1
2002/12/1 21:45,7.6 ,2,67,2,19.4 ,2,57.5 ,2,17.8 ,2,,1
2002/12/1 22:00,7.5 ,0,67,0,19.2 ,0,58.0 ,0,17.7 ,0,,1
2002/12/1 22:15,7.5 ,2,67,2,19.1 ,2,60.0 ,2,17.7 ,2,,1
2002/12/1 22:30,7.5 ,0,67,0,19.0 ,0,62.0 ,0,17.7 ,0,,1
2002/12/1 22:45,7.5 ,2,68,2,18.9 ,2,62.5 ,2,17.7 ,2,,1
2002/12/1 23:00,7.4 ,0,68,0,18.7 ,0,63.0 ,0,17.6 ,0,,1
2002/12/1 23:15,7.3 ,2,69,2,18.6 ,2,63.5 ,2,17.6 ,2,,1
2002/12/1 23:30,7.2 ,0,70,0,18.5 ,0,64.0 ,0,17.5 ,0,,1
2002/12/1 23:45,7.2 ,2,71,2,18.4 ,2,64.0 ,2,17.5 ,2,,1
2002/12/2 0:00,7.1 ,0,71,0,18.2 ,0,64.0 ,0,17.5 ,0,,1
2002/12/2 0:15,6.7 ,2,73,2,18.2 ,2,64.0 ,2,17.5 ,2,,1
2002/12/2 0:30,6.2 ,0,75,0,18.1 ,0,64.0 ,0,17.4 ,0,,1
2002/12/2 0:45,6.2 ,2,76,2,18.0 ,2,63.5 ,2,17.4 ,2,,1
2002/12/2 1:00,6.2 ,0,76,0,17.9 ,0,63.0 ,0,17.3 ,0,,1
2002/12/2 1:15,6.2 ,2,78,2,17.8 ,2,63.0 ,2,17.3 ,2,,1
2002/12/2 1:30,6.1 ,0,79,0,17.7 ,0,63.0 ,0,17.3 ,0,,1
2002/12/2 1:45,6.2 ,2,79,2,17.7 ,2,62.5 ,2,17.3 ,2,,1
2002/12/2 2:00,6.2 ,0,78,0,17.7 ,0,62.0 ,0,17.2 ,0,,1
2002/12/2 2:15,6.2 ,2,78,2,17.6 ,2,62.0 ,2,17.2 ,2,,1
2002/12/2 2:30,6.2 ,0,77,0,17.5 ,0,62.0 ,0,17.1 ,0,,1
2002/12/2 2:45,6.1 ,2,78,2,17.5 ,2,61.5 ,2,17.1 ,2,,1
2002/12/2 3:00,5.9 ,0,78,0,17.5 ,0,61.0 ,0,17.1 ,0,,1
2002/12/2 3:15,5.8 ,2,80,2,17.5 ,2,61.0 ,2,17.1 ,2,,1
2002/12/2 3:30,5.7 ,0,81,0,17.4 ,0,61.0 ,0,17.0 ,0,,1
2002/12/2 3:45,5.6 ,2,82,2,17.4 ,2,61.0 ,2,17.0 ,2,,1
2002/12/2 4:00,5.5 ,0,82,0,17.3 ,0,61.0 ,0,17.0 ,0,,1
2002/12/2 4:15,5.4 ,2,81,2,17.3 ,2,60.5 ,2,17.0 ,2,,1
2002/12/2 4:30,5.3 ,0,80,0,17.2 ,0,60.0 ,0,16.9 ,0,,1
2002/12/2 4:45,5.2 ,2,80,2,17.2 ,2,60.0 ,2,16.9 ,2,,1
2002/12/2 5:00,5.0 ,0,80,0,17.1 ,0,60.0 ,0,16.8 ,0,,1
2002/12/2 5:15,4.7 ,2,81,2,17.1 ,2,59.5 ,2,16.8 ,2,,1
2002/12/2 5:30,4.4 ,0,82,0,17.0 ,0,59.0 ,0,16.8 ,0,,1
2002/12/2 5:45,3.5 ,2,86,2,17.9 ,2,58.5 ,2,16.9 ,2,,1
2002/12/2 6:00,2.5 ,0,90,0,18.7 ,0,58.0 ,0,16.9 ,0,,1
2002/12/2 6:15,2.2 ,2,90,2,19.5 ,2,58.0 ,2,17.4 ,2,,1
2002/12/2 6:30,1.8 ,0,90,0,20.2 ,0,58.0 ,0,17.9 ,0,,1
2002/12/2 6:45,1.9 ,2,90,2,20.7 ,2,56.5 ,2,18.2 ,2,,1
2002/12/2 7:00,2.0 ,0,90,0,21.2 ,0,55.0 ,0,18.5 ,0,,1
2002/12/2 7:15,2.6 ,2,87,2,21.2 ,2,54.0 ,2,18.7 ,2,,1
2002/12/2 7:30,3.2 ,0,84,0,21.2 ,0,53.0 ,0,18.8 ,0,,1
2002/12/2 7:45,4.5 ,2,79,2,20.1 ,2,56.5 ,2,18.7 ,2,,1
2002/12/2 8:00,5.7 ,0,74,0,18.9 ,0,60.0 ,0,18.5 ,0,,1
2002/12/2 8:15,6.6 ,2,69,2,18.8 ,2,60.5 ,2,18.4 ,2,,1
2002/12/2 8:30,7.5 ,0,63,0,18.7 ,0,61.0 ,0,18.2 ,0,,1
2002/12/2 8:45,8.0 ,2,63,2,18.6 ,2,61.0 ,2,18.1 ,2,,1
2002/12/2 9:00,8.4 ,0,63,0,18.5 ,0,61.0 ,0,17.9 ,0,,1
2002/12/2 9:15,8.6 ,2,62,2,18.4 ,2,61.0 ,2,17.8 ,2,,1
2002/12/2 9:30,8.7 ,0,61,0,18.2 ,0,61.0 ,0,17.6 ,0,,1
2002/12/2 9:45,9.6 ,2,58,2,18.1 ,2,61.0 ,2,17.5 ,2,,1
2002/12/2 10:00,10.4 ,0,55,0,17.9 ,0,61.0 ,0,17.4 ,0,,1
2002/12/2 10:15,10.4 ,2,54,2,17.9 ,2,61.0 ,2,17.3 ,2,,1
2002/12/2 10:30,10.4 ,0,53,0,17.8 ,0,61.0 ,0,17.2 ,0,,1
2002/12/2 10:45,11.3 ,2,49,2,17.8 ,2,61.0 ,2,17.1 ,2,,1
2002/12/2 11:00,12.2 ,0,45,0,17.7 ,0,61.0 ,0,17.0 ,0,,1
2002/12/2 11:15,11.6 ,2,48,2,17.7 ,2,60.5 ,2,17.0 ,2,,1
2002/12/2 11:30,10.9 ,0,51,0,17.6 ,0,60.0 ,0,16.9 ,0,,1
2002/12/2 11:45,10.8 ,2,51,2,17.6 ,2,60.0 ,2,16.8 ,2,,1
2002/12/2 12:00,10.6 ,0,50,0,17.6 ,0,60.0 ,0,16.7 ,0,,1
2002/12/2 12:15,10.6 ,2,47,2,17.6 ,2,59.5 ,2,16.7 ,2,,1
2002/12/2 12:30,10.6 ,0,44,0,17.5 ,0,59.0 ,0,16.6 ,0,,1
2002/12/2 12:45,10.9 ,2,43,2,17.5 ,2,59.0 ,2,16.6 ,2,,1
2002/12/2 13:00,11.1 ,0,41,0,17.4 ,0,59.0 ,0,16.5 ,0,,1
2002/12/2 13:15,11.0 ,2,42,2,17.4 ,2,58.5 ,2,16.5 ,2,,1
2002/12/2 13:30,10.9 ,0,42,0,17.4 ,0,58.0 ,0,16.4 ,0,,1
2002/12/2 13:45,11.0 ,2,36,2,17.4 ,2,58.0 ,2,16.4 ,2,,1
2002/12/2 14:00,11.1 ,0,29,0,17.3 ,0,58.0 ,0,16.3 ,0,,1
2002/12/2 14:15,11.0 ,2,28,2,17.3 ,2,57.5 ,2,16.3 ,2,,1
2002/12/2 14:30,10.8 ,0,26,0,17.3 ,0,57.0 ,0,16.2 ,0,,1
2002/12/2 14:45,10.8 ,2,26,2,17.3 ,2,56.0 ,2,16.2 ,2,,1
2002/12/2 15:00,10.8 ,0,25,0,17.2 ,0,55.0 ,0,16.1 ,0,,1
2002/12/2 15:15,10.8 ,2,25,2,17.2 ,2,54.5 ,2,16.1 ,2,,1
2002/12/2 15:30,10.7 ,0,25,0,17.1 ,0,54.0 ,0,16.0 ,0,,1
2002/12/2 15:45,10.5 ,2,29,2,17.1 ,2,53.5 ,2,16.0 ,2,,1
2002/12/2 16:00,10.3 ,0,32,0,17.1 ,0,53.0 ,0,15.9 ,0,,1
2002/12/2 16:15,10.1 ,2,34,2,17.1 ,2,53.0 ,2,15.9 ,2,,1
2002/12/2 16:30,9.9 ,0,36,0,17.0 ,0,53.0 ,0,15.8 ,0,,1
2002/12/2 16:45,9.9 ,2,36,2,17.0 ,2,52.5 ,2,15.8 ,2,,1
2002/12/2 17:00,9.9 ,0,36,0,16.9 ,0,52.0 ,0,15.7 ,0,,1
2002/12/2 17:15,9.8 ,2,37,2,16.9 ,2,52.0 ,2,15.7 ,2,,1
2002/12/2 17:30,9.6 ,0,37,0,16.8 ,0,52.0 ,0,15.6 ,0,,1
2002/12/2 17:45,9.4 ,2,38,2,16.8 ,2,51.5 ,2,15.6 ,2,,1
2002/12/2 18:00,9.2 ,0,39,0,16.8 ,0,51.0 ,0,15.6 ,0,,1
2002/12/2 18:15,9.1 ,2,41,2,16.8 ,2,51.0 ,2,15.6 ,2,,1
2002/12/2 18:30,8.9 ,0,43,0,16.7 ,0,51.0 ,0,15.5 ,0,,1
2002/12/2 18:45,8.5 ,2,46,2,16.7 ,2,50.5 ,2,15.5 ,2,,1
2002/12/2 19:00,8.0 ,0,48,0,16.7 ,0,50.0 ,0,15.4 ,0,,1
2002/12/2 19:15,6.5 ,2,56,2,19.0 ,2,51.0 ,2,15.5 ,2,,1
2002/12/2 19:30,5.0 ,0,63,0,21.3 ,0,52.0 ,0,15.5 ,0,,1
2002/12/2 19:45,4.7 ,2,65,2,21.7 ,2,53.5 ,2,15.5 ,2,,1
2002/12/2 20:00,4.4 ,0,67,0,22.0 ,0,55.0 ,0,15.4 ,0,,1
2002/12/2 20:15,4.1 ,2,69,2,22.3 ,2,51.0 ,2,15.6 ,2,,1
2002/12/2 20:30,3.8 ,0,71,0,22.6 ,0,47.0 ,0,15.8 ,0,,1
2002/12/2 20:45,3.9 ,2,69,2,22.6 ,2,47.5 ,2,15.7 ,2,,1
2002/12/2 21:00,3.9 ,0,67,0,22.6 ,0,48.0 ,0,15.5 ,0,,1
2002/12/2 21:15,4.1 ,2,67,2,23.0 ,2,46.0 ,2,15.9 ,2,,1
2002/12/2 21:30,4.2 ,0,67,0,23.3 ,0,44.0 ,0,16.3 ,0,,1
2002/12/2 21:45,4.9 ,2,64,2,21.5 ,2,49.0 ,2,16.6 ,2,,1
2002/12/2 22:00,5.5 ,0,61,0,19.7 ,0,54.0 ,0,16.8 ,0,,1
2002/12/2 22:15,5.7 ,2,61,2,19.3 ,2,54.0 ,2,17.1 ,2,,1
2002/12/2 22:30,5.9 ,0,60,0,18.8 ,0,54.0 ,0,17.3 ,0,,1
2002/12/2 22:45,5.9 ,2,61,2,18.7 ,2,56.5 ,2,17.3 ,2,,1
2002/12/2 23:00,5.9 ,0,62,0,18.6 ,0,59.0 ,0,17.3 ,0,,1
2002/12/2 23:15,5.9 ,2,63,2,18.5 ,2,59.5 ,2,17.3 ,2,,1
2002/12/2 23:30,5.8 ,0,63,0,18.4 ,0,60.0 ,0,17.3 ,0,,1
2002/12/2 23:45,5.8 ,2,63,2,18.3 ,2,60.0 ,2,17.3 ,2,,1
2002/12/3 0:00,5.7 ,0,63,0,18.2 ,0,60.0 ,0,17.3 ,0,,1
2002/12/3 0:15,5.7 ,2,63,2,18.1 ,2,59.5 ,2,17.3 ,2,,1
2002/12/3 0:30,5.6 ,0,63,0,18.0 ,0,59.0 ,0,17.3 ,0,,1
2002/12/3 0:45,5.5 ,2,64,2,17.9 ,2,58.5 ,2,17.3 ,2,,1
2002/12/3 1:00,5.4 ,0,65,0,17.8 ,0,58.0 ,0,17.3 ,0,,1
2002/12/3 1:15,5.3 ,2,66,2,17.8 ,2,57.5 ,2,17.3 ,2,,1
2002/12/3 1:30,5.1 ,0,66,0,17.7 ,0,57.0 ,0,17.2 ,0,,1
2002/12/3 1:45,5.0 ,2,67,2,17.7 ,2,56.5 ,2,17.2 ,2,,1
2002/12/3 2:00,4.8 ,0,68,0,17.6 ,0,56.0 ,0,17.1 ,0,,1
2002/12/3 2:15,4.7 ,2,69,2,17.6 ,2,55.5 ,2,17.1 ,2,,1
2002/12/3 2:30,4.5 ,0,69,0,17.5 ,0,55.0 ,0,17.0 ,0,,1
2002/12/3 2:45,4.3 ,2,70,2,17.5 ,2,54.5 ,2,17.0 ,2,,1
2002/12/3 3:00,4.1 ,0,71,0,17.4 ,0,54.0 ,0,16.9 ,0,,1
2002/12/3 3:15,4.0 ,2,71,2,17.4 ,2,53.5 ,2,16.9 ,2,,1
2002/12/3 3:30,3.8 ,0,71,0,17.4 ,0,53.0 ,0,16.9 ,0,,1
2002/12/3 3:45,3.7 ,2,72,2,17.4 ,2,53.0 ,2,16.9 ,2,,1
2002/12/3 4:00,3.6 ,0,72,0,17.3 ,0,53.0 ,0,16.8 ,0,,1
2002/12/3 4:15,3.4 ,2,73,2,17.3 ,2,52.5 ,2,16.8 ,2,,1
2002/12/3 4:30,3.2 ,0,74,0,17.2 ,0,52.0 ,0,16.7 ,0,,1
2002/12/3 4:45,3.2 ,2,75,2,17.2 ,2,52.0 ,2,16.7 ,2,,1
2002/12/3 5:00,3.2 ,0,75,0,17.1 ,0,52.0 ,0,16.6 ,0,,1
2002/12/3 5:15,3.1 ,2,75,2,17.1 ,2,51.5 ,2,16.6 ,2,,1
2002/12/3 5:30,3.0 ,0,75,0,17.1 ,0,51.0 ,0,16.5 ,0,,1
2002/12/3 5:45,1.8 ,2,79,2,17.6 ,2,51.5 ,2,16.6 ,2,,1
2002/12/3 6:00,0.5 ,0,82,0,18.0 ,0,52.0 ,0,16.6 ,0,,1
2002/12/3 6:15,0.4 ,2,84,2,18.9 ,2,51.0 ,2,17.0 ,2,,1
2002/12/3 6:30,0.2 ,0,85,0,19.8 ,0,50.0 ,0,17.3 ,0,,1
2002/12/3 6:45,0.3 ,2,85,2,19.8 ,2,51.5 ,2,17.3 ,2,,1
2002/12/3 7:00,0.4 ,0,85,0,19.8 ,0,53.0 ,0,17.3 ,0,,1
2002/12/3 7:15,1.7 ,2,80,2,19.2 ,2,53.0 ,2,17.6 ,2,,1
2002/12/3 7:30,3.0 ,0,75,0,18.6 ,0,53.0 ,0,17.9 ,0,,1
2002/12/3 7:45,3.9 ,2,70,2,18.3 ,2,54.0 ,2,17.7 ,2,,1
2002/12/3 8:00,4.7 ,0,64,0,18.0 ,0,55.0 ,0,17.4 ,0,,1
2002/12/3 8:15,5.7 ,2,59,2,17.9 ,2,55.5 ,2,17.3 ,2,,1
2002/12/3 8:30,6.7 ,0,54,0,17.8 ,0,56.0 ,0,17.2 ,0,,1
2002/12/3 8:45,6.8 ,2,56,2,17.8 ,2,56.5 ,2,17.1 ,2,,1
2002/12/3 9:00,6.8 ,0,58,0,17.7 ,0,57.0 ,0,17.0 ,0,,1
2002/12/3 9:15,7.4 ,2,56,2,17.6 ,2,57.0 ,2,16.9 ,2,,1
2002/12/3 9:30,7.9 ,0,54,0,17.5 ,0,57.0 ,0,16.8 ,0,,1
2002/12/3 9:45,8.6 ,2,51,2,17.4 ,2,56.5 ,2,16.7 ,2,,1
2002/12/3 10:00,9.3 ,0,48,0,17.3 ,0,56.0 ,0,16.6 ,0,,1
2002/12/3 10:15,10.7 ,2,43,2,17.3 ,2,56.0 ,2,16.5 ,2,,1
2002/12/3 10:30,12.0 ,0,37,0,17.3 ,0,56.0 ,0,16.4 ,0,,1
2002/12/3 10:45,12.8 ,2,34,2,17.3 ,2,55.5 ,2,16.3 ,2,,1
2002/12/3 11:00,13.6 ,0,31,0,17.2 ,0,55.0 ,0,16.2 ,0,,1
2002/12/3 11:15,11.9 ,2,38,2,17.2 ,2,54.5 ,2,16.2 ,2,,1
2002/12/3 11:30,10.2 ,0,45,0,17.1 ,0,54.0 ,0,16.1 ,0,,1
2002/12/3 11:45,9.9 ,2,47,2,17.1 ,2,54.0 ,2,16.1 ,2,,1
2002/12/3 12:00,9.6 ,0,48,0,17.0 ,0,54.0 ,0,16.0 ,0,,1
2002/12/3 12:15,9.8 ,2,49,2,17.0 ,2,53.5 ,2,15.9 ,2,,1
2002/12/3 12:30,10.0 ,0,49,0,17.0 ,0,53.0 ,0,15.8 ,0,,1
2002/12/3 12:45,10.1 ,2,49,2,17.0 ,2,52.5 ,2,15.8 ,2,,1
2002/12/3 13:00,10.2 ,0,49,0,17.0 ,0,52.0 ,0,15.8 ,0,,1
2002/12/3 13:15,10.3 ,2,49,2,17.0 ,2,52.0 ,2,15.8 ,2,,1
2002/12/3 13:30,10.4 ,0,48,0,16.9 ,0,52.0 ,0,15.7 ,0,,1
2002/12/3 13:45,10.5 ,2,48,2,16.9 ,2,51.5 ,2,15.7 ,2,,1
2002/12/3 14:00,10.6 ,0,48,0,16.8 ,0,51.0 ,0,15.6 ,0,,1
2002/12/3 14:15,10.7 ,2,48,2,16.8 ,2,51.0 ,2,15.6 ,2,,1
2002/12/3 14:30,10.7 ,0,48,0,16.8 ,0,51.0 ,0,15.5 ,0,,1
2002/12/3 14:45,10.7 ,2,49,2,16.8 ,2,51.0 ,2,15.5 ,2,,1
2002/12/3 15:00,10.7 ,0,49,0,16.8 ,0,51.0 ,0,15.5 ,0,,1
2002/12/3 15:15,10.7 ,2,50,2,16.8 ,2,50.5 ,2,15.5 ,2,,1
2002/12/3 15:30,10.7 ,0,50,0,16.8 ,0,50.0 ,0,15.4 ,0,,1
2002/12/3 15:45,10.7 ,2,51,2,16.8 ,2,49.5 ,2,15.4 ,2,,1
2002/12/3 16:00,10.7 ,0,51,0,16.7 ,0,49.0 ,0,15.3 ,0,,1
2002/12/3 16:15,10.5 ,2,53,2,16.8 ,2,49.0 ,2,15.3 ,2,,1
2002/12/3 16:30,10.2 ,0,55,0,16.8 ,0,49.0 ,0,15.3 ,0,,1
2002/12/3 16:45,9.8 ,2,57,2,16.7 ,2,49.0 ,2,15.3 ,2,,1
2002/12/3 17:00,9.4 ,0,58,0,16.6 ,0,49.0 ,0,15.2 ,0,,1
2002/12/3 17:15,9.3 ,2,60,2,16.7 ,2,48.5 ,2,15.2 ,2,,1
2002/12/3 17:30,9.1 ,0,61,0,16.7 ,0,48.0 ,0,15.1 ,0,,1
2002/12/3 17:45,8.8 ,2,63,2,16.7 ,2,48.0 ,2,15.1 ,2,,1
2002/12/3 18:00,8.5 ,0,64,0,16.6 ,0,48.0 ,0,15.1 ,0,,1
2002/12/3 18:15,8.4 ,2,65,2,16.6 ,2,48.0 ,2,15.1 ,2,,1
2002/12/3 18:30,8.3 ,0,66,0,16.5 ,0,48.0 ,0,15.0 ,0,,1
2002/12/3 18:45,8.3 ,2,67,2,16.6 ,2,48.0 ,2,15.0 ,2,,1
2002/12/3 19:00,8.3 ,0,68,0,16.6 ,0,48.0 ,0,15.0 ,0,,1
2002/12/3 19:15,8.1 ,2,68,2,16.6 ,2,48.0 ,2,15.0 ,2,,1
2002/12/3 19:30,7.9 ,0,67,0,16.5 ,0,48.0 ,0,14.9 ,0,,1
2002/12/3 19:45,7.8 ,2,67,2,16.5 ,2,48.0 ,2,14.9 ,2,,1
2002/12/3 20:00,7.6 ,0,67,0,16.4 ,0,48.0 ,0,14.9 ,0,,1
2002/12/3 20:15,6.1 ,2,75,2,17.8 ,2,48.5 ,2,14.9 ,2,,1
2002/12/3 20:30,4.6 ,0,82,0,19.1 ,0,49.0 ,0,14.9 ,0,,1
2002/12/3 20:45,4.4 ,2,83,2,19.5 ,2,47.0 ,2,15.0 ,2,,1
2002/12/3 21:00,4.1 ,0,83,0,19.8 ,0,45.0 ,0,15.0 ,0,,1
2002/12/3 21:15,3.9 ,2,84,2,20.2 ,2,45.0 ,2,15.1 ,2,,1
2002/12/3 21:30,3.7 ,0,84,0,20.5 ,0,45.0 ,0,15.2 ,0,,1
2002/12/3 21:45,3.8 ,2,84,2,20.5 ,2,44.5 ,2,15.4 ,2,,1
2002/12/3 22:00,3.8 ,0,83,0,20.5 ,0,44.0 ,0,15.6 ,0,,1
2002/12/3 22:15,3.7 ,2,84,2,21.0 ,2,46.0 ,2,16.0 ,2,,1
2002/12/3 22:30,3.6 ,0,84,0,21.4 ,0,48.0 ,0,16.3 ,0,,1
2002/12/3 22:45,3.6 ,2,86,2,21.6 ,2,47.5 ,2,16.3 ,2,,1
2002/12/3 23:00,3.6 ,0,87,0,21.8 ,0,47.0 ,0,16.2 ,0,,1
2002/12/3 23:15,4.2 ,2,83,2,20.2 ,2,49.5 ,2,16.5 ,2,,1
2002/12/3 23:30,4.8 ,0,79,0,18.6 ,0,52.0 ,0,16.8 ,0,,1
2002/12/3 23:45,4.9 ,2,78,2,18.3 ,2,51.5 ,2,16.8 ,2,,1
2002/12/4 0:00,5.0 ,0,77,0,18.0 ,0,51.0 ,0,16.8 ,0,,1
2002/12/4 0:15,4.8 ,2,80,2,17.9 ,2,50.5 ,2,16.8 ,2,,1
2002/12/4 0:30,4.5 ,0,82,0,17.7 ,0,50.0 ,0,16.7 ,0,,1
2002/12/4 0:45,4.7 ,2,81,2,17.7 ,2,49.5 ,2,16.7 ,2,,1
2002/12/4 1:00,4.8 ,0,80,0,17.6 ,0,49.0 ,0,16.6 ,0,,1
2002/12/4 1:15,4.8 ,2,81,2,17.5 ,2,48.5 ,2,16.6 ,2,,1
2002/12/4 1:30,4.7 ,0,81,0,17.4 ,0,48.0 ,0,16.6 ,0,,1
2002/12/4 1:45,4.7 ,2,80,2,17.4 ,2,48.0 ,2,16.6 ,2,,1
2002/12/4 2:00,4.6 ,0,79,0,17.3 ,0,48.0 ,0,16.5 ,0,,1
2002/12/4 2:15,4.6 ,2,80,2,17.3 ,2,47.5 ,2,16.5 ,2,,1
2002/12/4 2:30,4.5 ,0,81,0,17.2 ,0,47.0 ,0,16.5 ,0,,1
2002/12/4 2:45,4.4 ,2,81,2,17.2 ,2,47.0 ,2,16.5 ,2,,1
2002/12/4 3:00,4.3 ,0,80,0,17.1 ,0,47.0 ,0,16.4 ,0,,1
2002/12/4 3:15,4.2 ,2,80,2,17.1 ,2,46.5 ,2,16.4 ,2,,1
2002/12/4 3:30,4.0 ,0,80,0,17.0 ,0,46.0 ,0,16.3 ,0,,1
2002/12/4 3:45,4.0 ,2,81,2,17.0 ,2,46.0 ,2,16.3 ,2,,1
2002/12/4 4:00,3.9 ,0,82,0,17.0 ,0,46.0 ,0,16.3 ,0,,1
2002/12/4 4:15,3.9 ,2,84,2,17.0 ,2,46.0 ,2,16.3 ,2,,1
2002/12/4 4:30,3.9 ,0,85,0,16.9 ,0,46.0 ,0,16.2 ,0,,1
2002/12/4 4:45,3.9 ,2,85,2,16.9 ,2,46.0 ,2,16.2 ,2,,1
2002/12/4 5:00,3.8 ,0,84,0,16.8 ,0,46.0 ,0,16.1 ,0,,1
2002/12/4 5:15,3.9 ,2,84,2,16.8 ,2,46.0 ,2,16.1 ,2,,1
2002/12/4 5:30,3.9 ,0,83,0,16.7 ,0,46.0 ,0,16.1 ,0,,1
2002/12/4 5:45,3.7 ,2,84,2,16.7 ,2,46.0 ,2,16.1 ,2,,1
2002/12/4 6:00,3.5 ,0,84,0,16.7 ,0,46.0 ,0,16.0 ,0,,1
2002/12/4 6:15,2.7 ,2,87,2,17.5 ,2,52.5 ,2,16.3 ,2,,1
2002/12/4 6:30,1.9 ,0,89,0,18.2 ,0,59.0 ,0,16.6 ,0,,1
2002/12/4 6:45,2.1 ,2,91,2,18.9 ,2,61.5 ,2,17.0 ,2,,1
2002/12/4 7:00,2.3 ,0,92,0,19.5 ,0,64.0 ,0,17.4 ,0,,1
2002/12/4 7:15,2.8 ,2,92,2,19.3 ,2,64.0 ,2,17.5 ,2,,1
2002/12/4 7:30,3.3 ,0,91,0,19.0 ,0,64.0 ,0,17.5 ,0,,1
2002/12/4 7:45,3.7 ,2,89,2,18.4 ,2,63.5 ,2,17.4 ,2,,1
2002/12/4 8:00,4.0 ,0,87,0,17.7 ,0,63.0 ,0,17.3 ,0,,1
2002/12/4 8:15,4.2 ,2,87,2,17.5 ,2,63.0 ,2,17.1 ,2,,1
2002/12/4 8:30,4.4 ,0,87,0,17.3 ,0,63.0 ,0,16.9 ,0,,1
2002/12/4 8:45,4.5 ,2,87,2,17.2 ,2,62.5 ,2,16.8 ,2,,1
2002/12/4 9:00,4.6 ,0,87,0,17.1 ,0,62.0 ,0,16.6 ,0,,1
2002/12/4 9:15,4.8 ,2,88,2,17.1 ,2,62.0 ,2,16.5 ,2,,1
2002/12/4 9:30,5.0 ,0,88,0,17.0 ,0,62.0 ,0,16.4 ,0,,1
2002/12/4 9:45,5.1 ,2,88,2,17.0 ,2,62.0 ,2,16.3 ,2,,1
2002/12/4 10:00,5.2 ,0,87,0,16.9 ,0,62.0 ,0,16.2 ,0,,1
2002/12/4 10:15,5.1 ,2,88,2,16.9 ,2,62.0 ,2,16.1 ,2,,1
2002/12/4 10:30,5.0 ,0,89,0,16.8 ,0,62.0 ,0,16.0 ,0,,1
2002/12/4 10:45,5.2 ,2,87,2,16.8 ,2,61.5 ,2,15.9 ,2,,1
2002/12/4 11:00,5.3 ,0,85,0,16.7 ,0,61.0 ,0,15.8 ,0,,1
2002/12/4 11:15,5.6 ,2,86,2,16.7 ,2,61.0 ,2,15.8 ,2,,1
2002/12/4 11:30,5.8 ,0,87,0,16.7 ,0,61.0 ,0,15.7 ,0,,1
2002/12/4 11:45,5.9 ,2,87,2,16.7 ,2,61.0 ,2,15.7 ,2,,1
2002/12/4 12:00,5.9 ,0,87,0,16.6 ,0,61.0 ,0,15.6 ,0,,1
2002/12/4 12:15,5.7 ,2,90,2,16.6 ,2,61.0 ,2,15.6 ,2,,1
2002/12/4 12:30,5.5 ,0,92,0,16.6 ,0,61.0 ,0,15.5 ,0,,1
2002/12/4 12:45,5.6 ,2,93,2,16.6 ,2,60.5 ,2,15.5 ,2,,1
2002/12/4 13:00,5.6 ,0,93,0,16.5 ,0,60.0 ,0,15.4 ,0,,1
2002/12/4 13:15,5.7 ,2,93,2,16.5 ,2,59.5 ,2,15.4 ,2,,1
2002/12/4 13:30,5.7 ,0,93,0,16.5 ,0,59.0 ,0,15.3 ,0,,1
2002/12/4 13:45,5.8 ,2,93,2,16.5 ,2,59.0 ,2,15.3 ,2,,1
2002/12/4 14:00,5.9 ,0,92,0,16.4 ,0,59.0 ,0,15.2 ,0,,1
2002/12/4 14:15,6.0 ,2,92,2,16.4 ,2,59.0 ,2,15.2 ,2,,1
2002/12/4 14:30,6.0 ,0,91,0,16.4 ,0,59.0 ,0,15.1 ,0,,1
2002/12/4 14:45,6.1 ,2,92,2,16.4 ,2,59.0 ,2,15.1 ,2,,1
2002/12/4 15:00,6.1 ,0,93,0,16.3 ,0,59.0 ,0,15.0 ,0,,1
2002/12/4 15:15,6.0 ,2,94,2,16.3 ,2,58.5 ,2,15.0 ,2,,1
2002/12/4 15:30,5.9 ,0,95,0,16.3 ,0,58.0 ,0,14.9 ,0,,1
2002/12/4 15:45,5.9 ,2,95,2,16.3 ,2,58.0 ,2,14.9 ,2,,1
2002/12/4 16:00,5.9 ,0,95,0,16.2 ,0,58.0 ,0,14.9 ,0,,1
2002/12/4 16:15,5.9 ,2,95,2,16.2 ,2,57.5 ,2,14.9 ,2,,1
2002/12/4 16:30,5.9 ,0,95,0,16.2 ,0,57.0 ,0,14.8 ,0,,1
2002/12/4 16:45,6.0 ,2,95,2,16.2 ,2,57.0 ,2,14.8 ,2,,1
2002/12/4 17:00,6.1 ,0,95,0,16.1 ,0,57.0 ,0,14.8 ,0,,1
2002/12/4 17:15,6.1 ,2,96,2,16.1 ,2,56.5 ,2,14.8 ,2,,1
2002/12/4 17:30,6.1 ,0,96,0,16.1 ,0,56.0 ,0,14.7 ,0,,1
2002/12/4 17:45,6.2 ,2,96,2,16.1 ,2,56.0 ,2,14.7 ,2,,1
2002/12/4 18:00,6.3 ,0,96,0,16.1 ,0,56.0 ,0,14.7 ,0,,1
2002/12/4 18:15,6.3 ,2,96,2,16.1 ,2,56.0 ,2,14.7 ,2,,1
2002/12/4 18:30,6.2 ,0,96,0,16.1 ,0,56.0 ,0,14.7 ,0,,1
2002/12/4 18:45,5.5 ,2,97,2,17.3 ,2,57.5 ,2,14.8 ,2,,1
2002/12/4 19:00,4.8 ,0,97,0,18.5 ,0,59.0 ,0,14.8 ,0,,1
2002/12/4 19:15,4.9 ,2,98,2,19.0 ,2,61.5 ,2,15.0 ,2,,1
2002/12/4 19:30,5.0 ,0,98,0,19.5 ,0,64.0 ,0,15.2 ,0,,1
2002/12/4 19:45,4.8 ,2,99,2,19.5 ,2,61.0 ,2,15.5 ,2,,1
2002/12/4 20:00,4.5 ,0,99,0,19.4 ,0,58.0 ,0,15.8 ,0,,1
2002/12/4 20:15,4.7 ,2,99,2,19.4 ,2,57.0 ,2,16.4 ,2,,1
2002/12/4 20:30,4.8 ,0,99,0,19.3 ,0,56.0 ,0,17.0 ,0,,1
2002/12/4 20:45,4.6 ,2,99,2,20.0 ,2,56.0 ,2,17.1 ,2,,1
2002/12/4 21:00,4.4 ,0,99,0,20.6 ,0,56.0 ,0,17.2 ,0,,1
2002/12/4 21:15,4.7 ,2,99,2,20.9 ,2,56.0 ,2,17.0 ,2,,1
2002/12/4 21:30,4.9 ,0,99,0,21.2 ,0,56.0 ,0,16.7 ,0,,1
2002/12/4 21:45,4.8 ,2,99,2,21.5 ,2,55.5 ,2,16.7 ,2,,1
2002/12/4 22:00,4.7 ,0,99,0,21.8 ,0,55.0 ,0,16.6 ,0,,1
2002/12/4 22:15,4.6 ,2,99,2,21.9 ,2,56.0 ,2,16.6 ,2,,1
2002/12/4 22:30,4.4 ,0,99,0,22.0 ,0,57.0 ,0,16.5 ,0,,1
2002/12/4 22:45,4.9 ,2,99,2,20.8 ,2,59.0 ,2,16.8 ,2,,1
2002/12/4 23:00,5.4 ,0,99,0,19.6 ,0,61.0 ,0,17.1 ,0,,1
2002/12/4 23:15,5.6 ,2,99,2,19.2 ,2,62.5 ,2,17.4 ,2,,1
2002/12/4 23:30,5.7 ,0,99,0,18.8 ,0,64.0 ,0,17.6 ,0,,1
2002/12/4 23:45,5.8 ,2,99,2,18.7 ,2,65.5 ,2,17.7 ,2,,1
2002/12/5 0:00,5.9 ,0,99,0,18.5 ,0,67.0 ,0,17.7 ,0,,1
2002/12/5 0:15,6.0 ,2,99,2,18.4 ,2,67.0 ,2,17.7 ,2,,1
2002/12/5 0:30,6.0 ,0,99,0,18.3 ,0,67.0 ,0,17.7 ,0,,1
2002/12/5 0:45,6.2 ,2,99,2,18.2 ,2,67.0 ,2,17.7 ,2,,1
2002/12/5 1:00,6.3 ,0,99,0,18.1 ,0,67.0 ,0,17.7 ,0,,1
2002/12/5 1:15,6.5 ,2,99,2,18.0 ,2,66.5 ,2,17.7 ,2,,1
2002/12/5 1:30,6.6 ,0,99,0,17.9 ,0,66.0 ,0,17.7 ,0,,1
2002/12/5 1:45,6.6 ,2,99,2,17.9 ,2,66.0 ,2,17.7 ,2,,1
2002/12/5 2:00,6.5 ,0,99,0,17.9 ,0,66.0 ,0,17.7 ,0,,1
2002/12/5 2:15,6.6 ,2,99,2,17.9 ,2,65.5 ,2,17.7 ,2,,1
2002/12/5 2:30,6.6 ,0,99,0,17.8 ,0,65.0 ,0,17.6 ,0,,1
2002/12/5 2:45,8.1 ,2,98,2,17.8 ,2,65.0 ,2,17.6 ,2,,1
2002/12/5 3:00,9.5 ,0,97,0,17.7 ,0,65.0 ,0,17.5 ,0,,1
2002/12/5 3:15,10.3 ,2,86,2,17.7 ,2,65.0 ,2,17.5 ,2,,1
2002/12/5 3:30,11.0 ,0,74,0,17.6 ,0,65.0 ,0,17.5 ,0,,1
2002/12/5 3:45,11.1 ,2,73,2,17.6 ,2,65.0 ,2,17.5 ,2,,1
2002/12/5 4:00,11.2 ,0,72,0,17.5 ,0,65.0 ,0,17.4 ,0,,1
2002/12/5 4:15,10.5 ,2,76,2,17.5 ,2,65.5 ,2,17.4 ,2,,1
2002/12/5 4:30,9.8 ,0,79,0,17.5 ,0,66.0 ,0,17.4 ,0,,1
2002/12/5 4:45,10.0 ,2,81,2,17.5 ,2,66.5 ,2,17.4 ,2,,1
2002/12/5 5:00,10.1 ,0,82,0,17.4 ,0,67.0 ,0,17.4 ,0,,1
2002/12/5 5:15,10.3 ,2,81,2,17.5 ,2,67.0 ,2,17.4 ,2,,1
2002/12/5 5:30,10.5 ,0,79,0,17.5 ,0,67.0 ,0,17.4 ,0,,1
2002/12/5 5:45,9.9 ,2,82,2,18.1 ,2,67.0 ,2,17.4 ,2,,1
2002/12/5 6:00,9.3 ,0,84,0,18.6 ,0,67.0 ,0,17.4 ,0,,1
2002/12/5 6:15,8.7 ,2,86,2,19.5 ,2,71.5 ,2,17.8 ,2,,1
2002/12/5 6:30,8.1 ,0,88,0,20.3 ,0,76.0 ,0,18.1 ,0,,1
2002/12/5 6:45,8.2 ,2,90,2,20.9 ,2,79.5 ,2,18.0 ,2,,1
2002/12/5 7:00,8.3 ,0,92,0,21.5 ,0,83.0 ,0,17.8 ,0,,1
2002/12/5 7:15,8.3 ,2,92,2,21.2 ,2,79.0 ,2,18.2 ,2,,1
2002/12/5 7:30,8.2 ,0,91,0,20.9 ,0,75.0 ,0,18.5 ,0,,1
2002/12/5 7:45,9.4 ,2,88,2,20.0 ,2,74.5 ,2,18.5 ,2,,1
2002/12/5 8:00,10.5 ,0,84,0,19.0 ,0,74.0 ,0,18.5 ,0,,1
2002/12/5 8:15,10.7 ,2,82,2,18.8 ,2,73.5 ,2,18.3 ,2,,1
2002/12/5 8:30,10.8 ,0,80,0,18.5 ,0,73.0 ,0,18.1 ,0,,1
2002/12/5 8:45,11.4 ,2,76,2,18.4 ,2,72.5 ,2,18.0 ,2,,1
2002/12/5 9:00,12.0 ,0,71,0,18.2 ,0,72.0 ,0,17.8 ,0,,1
2002/12/5 9:15,12.2 ,2,71,2,18.1 ,2,72.0 ,2,17.7 ,2,,1
2002/12/5 9:30,12.4 ,0,70,0,18.0 ,0,72.0 ,0,17.6 ,0,,1
2002/12/5 9:45,12.5 ,2,68,2,18.0 ,2,71.5 ,2,17.5 ,2,,1
2002/12/5 10:00,12.6 ,0,66,0,17.9 ,0,71.0 ,0,17.4 ,0,,1
2002/12/5 10:15,12.7 ,2,66,2,17.9 ,2,71.0 ,2,17.3 ,2,,1
2002/12/5 10:30,12.7 ,0,65,0,17.8 ,0,71.0 ,0,17.2 ,0,,1
2002/12/5 10:45,12.8 ,2,65,2,17.8 ,2,70.5 ,2,17.2 ,2,,1